Weather History for KTMK - March, 2013

Change the Weather History Date:

Friday, March 22, 2013

  Actual Average (KMMV) Record (KMMV)
Temperature  
Mean Temperature 42 °F 48 °F  
Max Temperature 48 °F 57 °F 79 °F (1915)
Min Temperature 35 °F 38 °F 22 °F (1898)
Degree Days  
Heating Degree Days 24 18  
Month to date heating degree days 420  
Since 1 July heating degree days 3799  
Cooling Degree Days 0 0  
Month to date cooling degree days 0  
Year to date cooling degree days 0  
Moisture  
Dew Point 36 °F    
Average Humidity 85    
Maximum Humidity 100    
Minimum Humidity 62    
Precipitation  
Precipitation 0.17 in 0.13 in 1.38 in (1998)
Month to date precipitation 2.95  
Year to date precipitation 13.49  
Sea Level Pressure  
Sea Level Pressure 30.37 in    
Wind  
Wind Speed 6 mph (SSW)    
Max Wind Speed 17 mph    
Max Gust Speed 23 mph    
Visibility 9 miles    
Events Rain    
T = Trace of Precipitation, MM = Missing Value Source: NWS Daily Summary

Daily Weather History Graph

Daily Weather History Graph

Search for Another Location

Airport or City:

Trip Planner

Search our weather history database for the weather conditions in past years. The results will help you decide how hot, cold, wet, or windy it might be!

Date:

Astronomy

Mar. 22, 2013 Rise Set
Actual Time 8:13 AM MDT 8:30 PM MDT
Civil Twilight 7:44 AM MDT 9:00 PM MDT
Nautical Twilight 7:09 AM MDT 9:35 PM MDT
Astronomical Twilight 6:33 AM MDT 10:11 PM MDT
Moon 3:52 PM MDT (3/22) 5:29 AM MDT (3/22)
Length of Visible Light 13h 16m
Length of Day
12h 17m
Waxing Gibbous, 78% of the Moon is Illuminated
Mar 22
Waxing Gibbous
Mar 27
Full
Apr 2
Last Quarter
Apr 10
New
Apr 18
First Quarter

Hourly Weather History & Observations

Time (MDT) Temp. Windchill Dew Point Humidity Pressure Visibility Wind Dir Wind Speed Gust Speed Precip Events Conditions
12:15 AM 41.0 °F 33.5 °F 37.4 °F 87% 30.34 in 4.0 mi West 13.8 mph 18.4 mph 0.04 in Rain Rain
12:35 AM 39.2 °F 35.0 °F 35.6 °F 87% 30.34 in 7.0 mi West 5.8 mph 11.5 mph 0.07 in Rain Light Rain
12:55 AM 39.2 °F 35.9 °F 35.6 °F 87% 30.34 in 10.0 mi South 4.6 mph - 0.07 in   Overcast
1:15 AM 39.2 °F 34.2 °F 35.6 °F 87% 30.34 in 10.0 mi ESE 6.9 mph - N/A   Overcast
1:35 AM 39.2 °F 33.6 °F 35.6 °F 87% 30.33 in 10.0 mi SE 8.1 mph - N/A   Overcast
1:55 AM 39.2 °F 34.2 °F 37.4 °F 93% 30.33 in 10.0 mi SSW 6.9 mph - N/A   Overcast
2:15 AM 39.2 °F 37.0 °F 35.6 °F 87% 30.33 in 10.0 mi SSW 3.5 mph - N/A   Mostly Cloudy
2:35 AM 39.2 °F 35.9 °F 37.4 °F 93% 30.33 in 10.0 mi SE 4.6 mph - N/A   Mostly Cloudy
2:55 AM 37.4 °F 32.8 °F 35.6 °F 93% 30.33 in 10.0 mi SSE 5.8 mph - N/A   Overcast
3:15 AM 37.4 °F 32.8 °F 37.4 °F 100% 30.34 in 10.0 mi SSE 5.8 mph - N/A   Mostly Cloudy
3:35 AM 37.4 °F 33.8 °F 35.6 °F 93% 30.34 in 10.0 mi SE 4.6 mph - N/A   Scattered Clouds
3:55 AM 37.4 °F 33.8 °F 35.6 °F 93% 30.34 in 10.0 mi SE 4.6 mph - N/A   Mostly Cloudy
4:15 AM 37.4 °F 32.8 °F 35.6 °F 93% 30.33 in 10.0 mi SE 5.8 mph - N/A   Mostly Cloudy
4:35 AM 37.4 °F 33.8 °F 35.6 °F 93% 30.33 in 10.0 mi SSE 4.6 mph - N/A   Scattered Clouds
4:55 AM 35.6 °F - 35.6 °F 100% 30.33 in 10.0 mi Calm Calm - N/A   Scattered Clouds
5:15 AM 35.6 °F 29.9 °F 33.8 °F 93% 30.33 in 10.0 mi SSE 6.9 mph - N/A   Scattered Clouds
5:35 AM 35.6 °F 30.7 °F 35.6 °F 100% 30.34 in 4.0 mi NNW 5.8 mph - 0.01 in   Mostly Cloudy
5:55 AM 35.6 °F 30.7 °F 35.6 °F 100% 30.33 in 10.0 mi SSE 5.8 mph - 0.02 in   Mostly Cloudy
6:15 AM 35.6 °F - 35.6 °F 100% 30.34 in 7.0 mi Calm Calm - N/A   Scattered Clouds
6:35 AM 35.6 °F 32.8 °F 33.8 °F 93% 30.35 in 5.0 mi North 3.5 mph - 0.01 in   Mostly Cloudy
6:55 AM 37.4 °F - 35.6 °F 93% 30.35 in 10.0 mi Calm Calm - 0.03 in   Overcast
7:15 AM 35.6 °F 30.7 °F 33.8 °F 93% 30.34 in 7.0 mi SE 5.8 mph - 0.02 in   Mostly Cloudy
7:35 AM 35.6 °F 31.7 °F 33.8 °F 93% 30.35 in 10.0 mi SSE 4.6 mph - 0.02 in   Scattered Clouds
7:55 AM 35.6 °F - 33.8 °F 93% 30.34 in 7.0 mi Calm Calm - 0.02 in   Mostly Cloudy
8:15 AM 35.6 °F - 33.8 °F 93% 30.35 in 7.0 mi Calm Calm - N/A   Overcast
8:35 AM 35.6 °F 31.7 °F 33.8 °F 93% 30.35 in 10.0 mi ESE 4.6 mph - N/A   Mostly Cloudy
8:55 AM 35.6 °F 32.8 °F 35.6 °F 100% 30.36 in 2.5 mi North 3.5 mph - N/A   Overcast
9:15 AM 35.6 °F - 35.6 °F 100% 30.36 in 7.0 mi Calm Calm - 0.01 in   Mostly Cloudy
9:35 AM 35.6 °F - 35.6 °F 100% 30.37 in 4.0 mi Calm Calm - 0.01 in   Scattered Clouds
9:55 AM 37.4 °F - 37.4 °F 100% 30.37 in 7.0 mi Calm Calm - 0.01 in   Mostly Cloudy
10:15 AM 37.4 °F - 35.6 °F 93% 30.37 in 7.0 mi Calm Calm - N/A Rain Light Rain
10:35 AM 39.2 °F 35.9 °F 37.4 °F 93% 30.37 in 7.0 mi ESE 4.6 mph - N/A   Scattered Clouds
10:55 AM 41.0 °F 37.1 °F 39.2 °F 93% 30.37 in 10.0 mi SSE 5.8 mph - N/A   Scattered Clouds
11:15 AM 41.0 °F - 37.4 °F 87% 30.38 in 10.0 mi Calm Calm - N/A   Overcast
11:35 AM 41.0 °F - 37.4 °F 87% 30.38 in 4.0 mi Calm Calm - 0.02 in Rain Light Rain
11:55 AM 41.0 °F 38.0 °F 37.4 °F 87% 30.38 in 10.0 mi SE 4.6 mph - 0.02 in   Mostly Cloudy
12:15 PM 42.8 °F 38.6 °F 39.2 °F 87% 30.38 in 10.0 mi SSE 6.9 mph - N/A   Scattered Clouds
12:35 PM 44.6 °F 42.2 °F 39.2 °F 81% 30.37 in 10.0 mi SSE 4.6 mph - N/A   Scattered Clouds
12:55 PM 44.6 °F - 35.6 °F 71% 30.38 in 10.0 mi Calm Calm - N/A   Scattered Clouds
1:15 PM 46.4 °F - 33.8 °F 62% 30.38 in 10.0 mi Calm Calm - N/A   Scattered Clouds
1:35 PM 46.4 °F 41.9 °F 35.6 °F 66% 30.38 in 10.0 mi WNW 9.2 mph - N/A   Mostly Cloudy
1:55 PM 46.4 °F 42.4 °F 35.6 °F 66% 30.37 in 10.0 mi NW 8.1 mph - N/A   Mostly Cloudy
2:15 PM 46.4 °F 39.5 °F 35.6 °F 66% 30.37 in 10.0 mi WNW 17.3 mph - N/A   Overcast
2:35 PM 44.6 °F 37.2 °F 37.4 °F 76% 30.39 in 10.0 mi NW 17.3 mph 23.0 mph N/A   Overcast
2:55 PM 41.0 °F 38.0 °F 35.6 °F 81% 30.39 in 5.0 mi SW 4.6 mph - N/A Rain Light Rain
3:15 PM 44.6 °F 40.7 °F 39.2 °F 81% 30.39 in 10.0 mi WSW 6.9 mph - N/A   Mostly Cloudy
3:35 PM 44.6 °F 42.2 °F 37.4 °F 76% 30.38 in 10.0 mi NW 4.6 mph - N/A   Mostly Cloudy
3:55 PM 44.6 °F 40.7 °F 37.4 °F 76% 30.38 in 10.0 mi NW 6.9 mph - N/A   Scattered Clouds
4:15 PM 46.4 °F 41.5 °F 37.4 °F 71% 30.37 in 10.0 mi WNW 10.4 mph - N/A   Clear
4:35 PM 46.4 °F 41.1 °F 35.6 °F 66% 30.37 in 10.0 mi West 11.5 mph - N/A   Clear
4:55 PM 48.2 °F - 35.6 °F 62% 30.38 in 10.0 mi WNW 13.8 mph - N/A   Clear
5:15 PM 48.2 °F - 35.6 °F 62% 30.38 in 10.0 mi NW 15.0 mph 20.7 mph N/A   Scattered Clouds
5:35 PM 42.8 °F 37.5 °F 37.4 °F 81% 30.39 in 5.0 mi WNW 9.2 mph - N/A Rain Light Rain
5:55 PM 44.6 °F - 33.8 °F 66% 30.39 in 10.0 mi Calm Calm - N/A   Overcast
6:15 PM 46.4 °F 42.4 °F 33.8 °F 62% 30.39 in 10.0 mi West 8.1 mph - N/A   Scattered Clouds
6:35 PM 46.4 °F 41.9 °F 35.6 °F 66% 30.39 in 10.0 mi West 9.2 mph - N/A   Clear
6:55 PM 44.6 °F 39.7 °F 33.8 °F 66% 30.39 in 10.0 mi West 9.2 mph - N/A   Clear
7:15 PM 44.6 °F 39.7 °F 33.8 °F 66% 30.38 in 10.0 mi WNW 9.2 mph - N/A   Clear
7:35 PM 44.6 °F 39.7 °F 35.6 °F 71% 30.38 in 10.0 mi WNW 9.2 mph - N/A   Scattered Clouds
7:55 PM 44.6 °F 42.2 °F 35.6 °F 71% 30.38 in 10.0 mi WNW 4.6 mph - N/A   Scattered Clouds
8:15 PM 42.8 °F - 35.6 °F 76% 30.38 in 10.0 mi Calm Calm - N/A   Scattered Clouds
8:35 PM 42.8 °F - 35.6 °F 76% 30.38 in 10.0 mi Calm Calm - N/A   Mostly Cloudy
8:55 PM 41.0 °F 39.0 °F 35.6 °F 81% 30.38 in 10.0 mi SW 3.5 mph - N/A   Mostly Cloudy
9:15 PM 41.0 °F 37.1 °F 33.8 °F 76% 30.38 in 10.0 mi SSW 5.8 mph - N/A   Scattered Clouds
9:35 PM 39.2 °F 35.9 °F 35.6 °F 87% 30.39 in 10.0 mi SSE 4.6 mph - N/A   Clear
9:55 PM 37.4 °F - 35.6 °F 93% 30.40 in 10.0 mi Calm Calm - N/A   Clear
10:15 PM 37.4 °F - 35.6 °F 93% 30.41 in 10.0 mi Calm Calm - N/A   Clear
10:35 PM 37.4 °F 34.9 °F 35.6 °F 93% 30.41 in 10.0 mi SE 3.5 mph - N/A   Scattered Clouds
10:55 PM 37.4 °F 33.8 °F 35.6 °F 93% 30.40 in 7.0 mi South 4.6 mph - N/A   Light Drizzle
11:15 PM 37.4 °F 34.9 °F 35.6 °F 93% 30.41 in 10.0 mi SE 3.5 mph - N/A   Mostly Cloudy
11:35 PM 37.4 °F 34.9 °F 35.6 °F 93% 30.41 in 10.0 mi South 3.5 mph - N/A   Overcast
11:55 PM 37.4 °F 34.9 °F 35.6 °F 93% 30.41 in 10.0 mi ESE 3.5 mph - N/A   Mostly Cloudy